Temp
9 9 8 8 8 10 12 13 13 11 9 8 7 8 8 8 9 8 8 8 7 7 7 7 7 7 6 6 5 6 5 5 6 6 6 6 6 6 5 5 5 5 5 5 5 5 5 5 5
8 8 8 8 9 12 14 14 12 9 7 7 7 6 7 6 7 8 8 6 6 6 6 6 7 6 6 5 5 5 5 5 5 6 6 6 6 5 5 5 5 4 4 4 4 4 4 4 4
8 8 7 9 10 12 14 12 10 8 7 7 7 6 6 5 6 7 7 6 6 6 5 5 6 5 6 5 5 5 5 5 5 5 5 5 5 5 4 4 4 4 4 4 4 4 4 4 4
8 7 7 9 11 12 12 10 8 8 7 6 7 7 6 5 6 6 6 6 6 5 4 4 5 5 5 5 5 4 5 5 5 5 5 5 5 4 4 4 4 4 3 3 3 3 3 3 3
7 7 9 10 11 12 11 10 9 9 7 7 7 6 6 6 6 7 7 6 5 5 3 4 4 4 5 4 4 4 5 5 5 5 5 5 4 4 4 4 3 3 3 3 3 3 3 3 3
6 8 10 11 12 12 11 10 9 6 7 5 7 6 5 6 6 5 5 5 4 4 2 4 3 4 4 4 4 5 5 5 5 5 5 4 4 4 4 3 3 3 3 3 3 3 3 3 2
7 9 10 12 12 11 11 10 8 9 6 6 6 6 5 6 6 5 5 4 3 2 3 3 4 4 4 4 4 5 5 5 5 5 4 4 4 3 3 3 3 3 3 3 2 2 2 2 2
7 9 10 11 12 11 10 9 9 8 7 6 7 5 6 5 6 5 5 4 5 5 3 3 3 4 4 4 5 5 5 5 5 4 4 4 3 3 3 3 2 2 2 2 2 2 2 2 2
6 8 10 11 10 8 9 9 8 7 7 7 4 6 6 6 6 5 4 4 4 4 4 4 4 4 4 4 5 5 5 5 4 4 4 3 3 3 3 2 2 2 2 1 1 1 2 2 1
7 9 11 10 9 9 7 8 7 7 7 6 6 6 7 6 5 5 5 4 4 5 5 5 5 4 4 4 4 4 4 4 4 4 3 3 3 3 2 2 2 1 1 1 1 1 1 2 1
7 9 9 7 9 9 8 8 8 7 7 7 6 5 5 4 5 5 4 3 5 5 5 5 4 4 4 4 4 4 4 3 3 3 3 3 3 3 2 2 1 1 1 -0 0 0 0 0 1
8 8 9 9 9 9 9 9 8 5 4 7 6 4 4 4 5 5 5 5 5 5 5 4 4 4 4 4 4 3 3 3 3 2 2 2 2 2 2 2 2 1 -1 -0 -0 -0 -0 0 0
7 8 8 8 9 8 8 9 8 7 7 6 5 4 4 4 4 5 4 3 5 5 5 5 4 4 4 4 3 3 3 3 2 2 2 2 1 1 1 0 0 -0 -0 -0 -0 -1 -0 -0 -0
8 8 8 8 8 8 9 9 8 7 6 5 5 4 4 4 4 3 3 3 4 5 5 4 4 4 4 4 4 3 3 2 2 3 2 1 0 0 0 0 0 -1 -1 -1 -1 -1 -0 -0 -1
7 8 8 8 8 8 9 8 7 7 6 5 5 5 4 4 3 4 4 5 4 4 4 4 4 4 4 3 3 2 1 2 2 2 2 1 0 -0 0 -0 -1 -2 -1 -1 -1 -1 -1 -1 -1
8 9 9 8 8 8 9 8 7 7 6 6 6 5 5 4 4 4 5 5 5 5 5 4 4 3 3 2 1 1 1 2 1 1 1 1 1 -0 -0 0 -1 -1 -1 -1 -1 -1 -1 -1 -2
9 9 9 8 9 9 9 9 7 7 7 7 6 5 5 4 4 4 5 5 5 5 5 4 3 3 3 2 1 2 2 1 1 1 0 1 1 0 0 -0 -1 -1 -1 -2 -2 -1 -1 -2 -1
9 10 9 9 9 9 9 8 7 7 7 7 6 5 5 6 5 5 5 5 5 5 5 4 3 3 2 2 2 1 1 1 1 1 1 0 0 -0 -1 -1 -1 -1 -2 -2 -1 -1 -1 -2 -3
9 10 10 10 9 9 9 9 8 7 7 7 6 6 5 4 5 5 5 4 4 4 4 4 3 3 3 2 1 1 1 1 1 1 0 -0 -1 -1 -1 -1 -2 -2 -1 -2 -2 -2 -2 -2 -3
10 10 10 9 8 8 9 9 8 7 7 7 6 6 5 4 6 5 5 5 4 4 4 3 3 3 2 2 1 1 1 1 0 -0 -1 -1 -1 -1 -1 -1 -1 -2 -2 -2 -2 -3 -3 -3 -4
9 10 9 9 8 8 9 9 7 7 7 6 6 6 5 5 6 6 5 5 4 4 3 3 3 3 2 2 1 0 0 -1 -1 -1 -1 -1 -1 -1 -2 -2 -2 -2 -2 -3 -3 -4 -4 -4 -5
9 9 8 9 9 10 9 10 9 7 8 8 7 5 4 5 6 6 5 5 5 3 3 3 2 2 1 1 0 -0 -1 -2 -1 -2 -2 -2 -2 -2 -2 -2 -2 -2 -3 -4 -4 -5 -5 -6 -6
6 8 9 9 9 10 9 10 8 7 7 7 8 7 6 6 6 5 3 5 4 3 3 3 2 2 1 0 -0 -0 -1 -1 -1 -1 -2 -2 -2 -2 -2 -3 -3 -3 -4 -5 -5 -5 -6 -7 -8
8 8 8 9 9 10 10 9 8 8 8 7 7 6 5 4 3 3 3 4 4 3 3 3 2 1 1 0 -0 -1 -1 -1 -2 -2 -2 -2 -2 -2 -3 -3 -4 -4 -5 -6 -6 -7 -8 -8 -10
8 8 9 10 10 10 10 9 10 10 8 8 5 5 4 5 5 4 4 4 4 3 3 2 1 1 1 0 -0 -1 -1 -1 -3 -2 -2 -2 -3 -3 -4 -4 -5 -5 -6 -7 -7 -8 -9 -11 -11
8 9 9 9 9 11 9 10 10 9 8 7 5 4 4 5 5 4 4 4 3 3 2 2 1 1 0 0 0 -1 -2 -2 -3 -2 -3 -3 -4 -4 -4 -5 -5 -6 -7 -8 -8 -10 -11 -12 -13
8 7 8 8 7 8 9 10 10 9 7 6 5 4 3 4 4 4 4 3 3 3 2 1 1 0 0 -0 -1 -2 -2 -2 -2 -2 -3 -4 -4 -5 -5 -6 -6 -7 -8 -10 -11 -11 -12 -13 -14
7 7 7 7 7 8 10 10 10 7 7 6 5 4 3 2 2 4 3 3 3 2 2 1 0 0 -0 -0 -1 -2 -2 -3 -3 -3 -4 -5 -5 -5 -6 -6 -7 -8 -9 -10 -12 -14 -14 -13 -14
6 7 7 7 7 8 9 10 8 7 7 6 5 4 3 2 1 2 2 3 3 2 2 1 -0 -0 -1 -1 -1 -2 -3 -3 -4 -4 -5 -5 -5 -5 -6 -7 -8 -9 -10 -13 -14 -14 -14 -14 -15
6 7 7 7 8 6 6 7 7 7 6 5 5 5 3 2 2 1 2 3 2 2 2 1 0 -1 -1 -1 -2 -3 -3 -4 -4 -5 -5 -5 -6 -6 -7 -8 -9 -10 -12 -12 -14 -15 -15 -15 -15
Height
3147 3148 3150 3153 3160 3153 3146 3142 3140 3143 3143 3145 3147 3148 3146 3143 3146 3151 3146 3148 3149 3153 3155 3159 3161 3163 3166 3167 3169 3170 3172 3172 3174 3174 3174 3174 3173 3173 3173 3173 3173 3172 3171 3171 3171 3169 3168 3167 3166
3144 3148 3150 3154 3154 3145 3138 3137 3140 3140 3144 3141 3146 3145 3145 3144 3144 3146 3147 3149 3151 3153 3155 3159 3162 3163 3165 3167 3168 3170 3172 3173 3174 3174 3174 3174 3174 3173 3173 3173 3173 3173 3173 3172 3172 3170 3170 3169 3168
3143 3146 3151 3151 3148 3143 3137 3135 3140 3143 3145 3141 3143 3142 3143 3146 3147 3147 3146 3148 3150 3152 3152 3155 3160 3163 3164 3166 3168 3170 3171 3172 3172 3172 3173 3173 3173 3173 3174 3174 3174 3174 3174 3173 3172 3171 3170 3169 3168
3142 3145 3149 3147 3142 3141 3140 3138 3140 3144 3142 3143 3143 3144 3145 3146 3147 3148 3149 3149 3148 3150 3148 3148 3160 3162 3163 3164 3167 3170 3171 3171 3171 3172 3172 3173 3174 3174 3175 3175 3174 3174 3174 3172 3172 3171 3171 3169 3168
3141 3146 3146 3142 3140 3138 3141 3137 3137 3141 3139 3142 3144 3141 3144 3143 3146 3144 3145 3146 3147 3147 3145 3148 3157 3159 3163 3164 3166 3170 3170 3170 3170 3172 3172 3173 3174 3175 3175 3176 3175 3174 3174 3172 3172 3171 3170 3170 3169
3143 3144 3142 3137 3135 3137 3139 3139 3139 3135 3136 3142 3144 3142 3143 3143 3144 3141 3140 3141 3142 3141 3141 3150 3155 3159 3163 3164 3167 3168 3169 3170 3170 3171 3172 3174 3174 3176 3176 3176 3176 3174 3174 3174 3172 3171 3171 3169 3168
3141 3143 3138 3133 3131 3134 3137 3137 3135 3136 3140 3141 3143 3145 3142 3141 3143 3143 3142 3141 3138 3134 3143 3151 3159 3160 3162 3165 3167 3167 3168 3169 3170 3171 3173 3174 3175 3175 3176 3176 3175 3175 3173 3172 3172 3170 3169 3168 3167
3141 3141 3137 3133 3131 3132 3135 3137 3135 3141 3142 3142 3141 3141 3140 3141 3143 3143 3143 3143 3146 3137 3144 3155 3160 3160 3162 3164 3166 3166 3167 3168 3171 3172 3174 3174 3174 3174 3175 3176 3174 3173 3173 3172 3170 3169 3167 3165 3164
3139 3140 3134 3131 3132 3130 3129 3136 3140 3139 3139 3140 3127 3140 3139 3140 3142 3144 3146 3147 3148 3149 3152 3157 3159 3160 3161 3164 3166 3167 3169 3170 3170 3172 3173 3174 3174 3173 3173 3174 3174 3172 3171 3171 3170 3167 3165 3164 3161
3136 3136 3131 3130 3127 3128 3135 3138 3137 3139 3136 3138 3138 3140 3138 3139 3142 3145 3148 3150 3152 3153 3154 3156 3158 3160 3161 3164 3167 3168 3168 3169 3171 3172 3173 3174 3175 3174 3174 3174 3172 3171 3170 3169 3168 3165 3163 3161 3161
3135 3133 3133 3127 3125 3131 3136 3137 3139 3136 3136 3138 3140 3139 3141 3142 3144 3147 3150 3151 3153 3153 3155 3158 3161 3163 3164 3165 3166 3168 3170 3171 3173 3174 3175 3177 3176 3175 3175 3173 3171 3169 3168 3167 3164 3163 3161 3159 3157
3135 3135 3134 3130 3130 3135 3137 3138 3135 3136 3133 3136 3143 3142 3144 3143 3147 3149 3152 3153 3156 3157 3159 3161 3162 3163 3165 3166 3166 3168 3169 3171 3171 3173 3175 3174 3175 3174 3174 3172 3167 3166 3167 3164 3163 3161 3158 3155 3152
3135 3135 3134 3134 3134 3137 3138 3139 3140 3142 3142 3140 3140 3142 3146 3147 3149 3152 3155 3155 3157 3158 3160 3161 3163 3164 3165 3166 3166 3168 3168 3169 3172 3173 3171 3171 3171 3171 3169 3167 3164 3162 3162 3160 3159 3157 3154 3150 3147
3134 3135 3134 3136 3137 3139 3139 3140 3141 3143 3143 3141 3142 3145 3148 3150 3152 3155 3158 3157 3158 3159 3160 3161 3162 3164 3164 3166 3168 3169 3169 3171 3172 3171 3168 3166 3166 3165 3163 3161 3159 3158 3157 3156 3154 3151 3148 3146 3142
3133 3133 3133 3137 3138 3139 3140 3143 3143 3144 3145 3145 3148 3150 3150 3152 3153 3155 3156 3158 3159 3160 3161 3162 3164 3166 3166 3168 3168 3168 3169 3170 3166 3165 3162 3161 3160 3159 3159 3156 3153 3153 3152 3150 3147 3145 3142 3138 3133
3133 3134 3134 3137 3139 3140 3140 3141 3144 3146 3148 3149 3151 3152 3153 3153 3155 3156 3157 3159 3160 3161 3162 3164 3165 3166 3166 3166 3164 3162 3163 3162 3161 3160 3159 3159 3158 3156 3155 3152 3148 3147 3146 3144 3142 3139 3134 3132 3129
3133 3133 3133 3138 3138 3140 3141 3140 3143 3147 3149 3151 3153 3154 3155 3155 3157 3157 3158 3159 3161 3161 3162 3163 3164 3164 3164 3163 3162 3162 3161 3160 3159 3158 3158 3157 3156 3154 3151 3148 3146 3145 3142 3137 3134 3131 3128 3122 3118
3131 3130 3133 3134 3139 3139 3139 3141 3144 3147 3150 3152 3153 3155 3154 3154 3156 3156 3158 3159 3160 3161 3162 3163 3162 3162 3161 3161 3161 3160 3159 3157 3156 3156 3155 3154 3152 3150 3148 3144 3142 3140 3136 3131 3127 3122 3119 3114 3108
3130 3129 3129 3133 3138 3139 3140 3142 3144 3146 3149 3151 3153 3154 3154 3155 3155 3156 3157 3158 3159 3159 3160 3160 3160 3161 3160 3160 3159 3157 3156 3155 3154 3153 3152 3150 3148 3146 3144 3140 3136 3132 3129 3123 3118 3113 3109 3106 3102
3130 3129 3130 3136 3138 3139 3140 3141 3143 3144 3147 3149 3151 3152 3153 3153 3152 3153 3154 3155 3156 3156 3157 3157 3158 3158 3158 3157 3156 3156 3155 3153 3151 3150 3148 3146 3144 3140 3137 3133 3129 3124 3120 3116 3110 3105 3100 3097 3093
3130 3129 3132 3133 3136 3137 3135 3137 3139 3140 3142 3144 3147 3149 3150 3148 3149 3150 3150 3151 3152 3152 3154 3155 3156 3156 3156 3155 3154 3153 3151 3148 3146 3144 3141 3138 3138 3134 3130 3125 3120 3117 3112 3107 3102 3097 3091 3088 3084
3129 3131 3134 3134 3134 3131 3133 3128 3134 3138 3137 3139 3141 3143 3144 3144 3144 3145 3146 3146 3148 3149 3151 3152 3152 3152 3151 3150 3150 3148 3146 3144 3142 3140 3136 3134 3130 3126 3123 3118 3113 3109 3104 3099 3094 3090 3083 3079 3075
3131 3133 3132 3133 3131 3127 3129 3128 3128 3139 3136 3134 3136 3138 3139 3140 3140 3141 3142 3143 3145 3147 3147 3147 3148 3147 3146 3146 3145 3143 3141 3140 3137 3136 3133 3128 3123 3119 3114 3110 3105 3100 3095 3090 3085 3079 3076 3070 3065
3130 3132 3133 3133 3129 3126 3124 3126 3127 3130 3130 3130 3132 3133 3135 3136 3137 3138 3139 3141 3142 3143 3143 3143 3143 3143 3142 3141 3140 3138 3137 3134 3133 3128 3125 3120 3115 3111 3106 3102 3096 3091 3085 3081 3076 3070 3064 3058 3053
3132 3132 3127 3126 3124 3125 3123 3123 3123 3125 3125 3128 3129 3129 3130 3132 3134 3134 3135 3137 3139 3139 3139 3139 3138 3137 3137 3135 3133 3131 3129 3128 3123 3122 3116 3111 3106 3103 3098 3092 3087 3082 3077 3071 3066 3060 3054 3050 3044
3130 3130 3126 3124 3123 3120 3123 3123 3121 3122 3123 3126 3126 3127 3127 3128 3130 3131 3133 3134 3134 3134 3134 3134 3133 3132 3131 3129 3127 3125 3123 3120 3116 3112 3108 3103 3099 3094 3088 3083 3077 3072 3067 3061 3055 3049 3045 3042 3038
3127 3129 3129 3127 3128 3128 3124 3120 3118 3118 3121 3123 3124 3124 3123 3124 3126 3128 3129 3130 3130 3130 3130 3129 3128 3126 3125 3124 3122 3119 3117 3115 3110 3104 3100 3095 3091 3085 3079 3073 3067 3063 3058 3051 3048 3043 3038 3036 3030
3126 3127 3128 3128 3128 3125 3115 3115 3115 3117 3119 3120 3121 3121 3121 3122 3122 3124 3125 3125 3125 3125 3124 3123 3121 3120 3119 3118 3115 3112 3110 3106 3101 3096 3093 3088 3082 3076 3071 3066 3061 3053 3047 3044 3039 3036 3032 3029 3026
3123 3124 3126 3125 3124 3122 3118 3115 3115 3117 3118 3118 3119 3120 3120 3119 3120 3120 3120 3120 3120 3119 3118 3117 3115 3113 3113 3111 3108 3106 3101 3097 3092 3089 3085 3080 3075 3069 3064 3058 3052 3047 3040 3036 3032 3027 3025 3023 3020
3119 3120 3121 3123 3122 3123 3123 3119 3114 3115 3115 3115 3117 3118 3118 3118 3118 3117 3114 3115 3114 3113 3112 3111 3109 3107 3107 3104 3102 3097 3093 3089 3086 3082 3077 3072 3066 3061 3055 3049 3043 3037 3032 3028 3023 3020 3019 3017 3014
Wind_Speed
14 15 12 9 8 12 21 23 13 8 9 9 8 7 9 12 15 13 13 19 20 23 22 20 17 15 17 14 10 7 5 3 2 2 4 3 5 7 8 9 11 11 11 12 12 13 12 12 11
15 16 12 7 13 21 22 18 6 9 8 9 9 9 9 4 15 13 11 17 22 23 22 17 16 18 17 13 9 7 4 3 1 2 2 4 6 7 8 9 10 10 10 11 12 12 11 11 11
13 14 8 12 18 22 17 6 10 8 6 6 8 8 8 5 5 7 14 23 25 24 24 19 21 19 18 13 8 6 4 3 1 0 5 5 6 8 8 8 9 9 10 11 11 11 12 12 13
10 10 12 14 19 15 12 7 9 6 7 8 6 7 7 5 3 10 10 14 20 23 25 28 20 18 14 11 8 6 5 3 1 5 6 6 8 8 8 7 8 8 8 9 11 13 14 15 14
11 10 15 16 19 11 9 14 8 8 11 7 4 4 6 9 10 10 13 17 22 26 27 24 19 18 12 11 9 7 5 3 6 8 7 8 8 7 6 6 7 7 8 10 12 14 15 16 17
10 11 17 21 19 12 11 11 11 8 5 2 2 7 2 3 4 12 16 18 22 22 23 21 15 13 15 11 8 7 5 7 9 9 9 9 8 6 5 5 5 5 7 10 12 14 16 18 19
15 14 17 18 8 10 12 15 18 11 3 2 6 11 6 7 8 10 10 12 9 26 24 17 14 14 14 10 9 8 9 10 10 10 10 9 7 5 3 2 3 6 9 12 13 15 18 21 22
13 13 19 12 15 10 12 13 5 8 5 10 1 3 1 9 8 12 10 7 9 11 17 16 12 11 9 9 10 11 12 12 11 10 10 10 7 4 2 2 4 8 12 14 15 17 20 24 25
14 14 20 15 8 6 11 6 9 8 4 8 11 1 5 7 11 15 13 12 13 14 15 15 12 11 11 10 13 11 9 10 11 12 12 9 7 5 5 4 7 12 14 16 17 19 22 25 28
15 14 14 9 10 11 9 8 12 10 7 9 10 5 5 9 15 17 16 14 14 12 11 11 13 13 12 10 10 10 13 13 12 11 9 10 7 6 7 8 8 12 15 18 20 22 24 27 28
17 14 7 8 10 7 2 5 3 10 11 9 9 9 12 15 18 19 17 15 13 12 10 10 10 11 12 12 13 12 11 9 7 6 7 8 11 12 13 13 12 13 16 16 21 26 26 29 31
12 12 7 5 2 3 5 6 2 7 13 11 11 15 19 19 18 17 17 16 13 9 9 12 13 13 13 15 13 10 9 7 7 6 8 11 16 19 19 25 22 16 16 19 23 26 31 35 35
13 6 8 9 10 6 10 8 6 9 8 11 17 19 20 18 19 19 16 13 10 8 10 14 14 13 13 13 12 12 11 8 5 8 13 15 15 19 23 28 31 30 23 22 25 30 33 35 37
10 8 9 8 13 10 9 7 4 10 10 16 19 19 18 18 18 17 17 13 10 11 12 12 13 12 12 11 11 11 11 9 11 17 21 21 22 23 25 21 18 16 19 21 28 33 35 36 39
4 8 13 9 8 11 11 9 7 8 11 16 17 17 17 17 17 16 13 11 10 11 12 11 10 9 8 10 12 12 8 19 23 25 29 25 24 21 26 15 11 19 26 26 31 36 39 42 45
8 12 18 17 13 12 12 12 11 13 14 15 15 16 15 16 15 15 14 11 10 11 12 11 9 8 10 10 15 14 17 12 16 26 25 29 24 18 21 22 23 25 29 33 37 41 44 45 45
11 12 13 13 12 11 10 16 13 16 14 13 14 16 16 16 15 14 14 12 9 9 9 10 10 11 14 16 16 12 9 8 10 14 16 16 16 17 21 25 27 29 34 39 42 42 42 46 47
9 13 15 14 13 11 4 13 15 17 16 16 14 16 17 17 17 16 15 15 15 14 15 14 15 15 16 12 11 8 8 8 8 9 12 13 16 20 24 30 30 33 37 41 43 44 44 45 46
8 9 14 15 11 11 11 12 15 17 17 17 17 17 16 17 19 17 17 18 18 17 18 17 16 14 13 10 7 6 6 7 8 10 14 17 21 24 26 31 35 38 40 42 44 46 47 43 43
6 7 11 9 12 10 13 12 15 17 17 18 18 18 18 18 20 20 19 19 19 19 18 16 13 12 10 8 7 7 8 10 11 15 18 23 25 30 33 36 37 39 40 41 43 44 45 43 43
9 11 12 11 13 11 13 14 16 17 18 19 18 17 18 20 20 21 22 22 23 22 19 14 11 11 10 7 7 9 12 12 15 21 26 29 30 34 36 37 38 39 40 41 42 43 45 43 44
9 5 10 5 14 21 19 17 16 18 19 19 20 19 19 18 19 20 20 20 18 17 14 10 10 9 7 9 12 14 10 14 22 25 29 33 38 37 36 37 38 39 39 40 40 40 45 44 45
8 8 6 5 10 16 17 14 14 22 19 17 21 21 20 20 18 16 17 19 17 15 10 10 8 7 10 13 15 18 19 23 28 31 34 38 38 37 37 38 38 39 39 39 41 43 40 43 44
5 6 7 10 13 10 20 18 25 19 18 17 18 22 21 18 17 20 21 21 18 12 9 11 12 12 12 15 19 22 25 28 28 36 38 39 37 37 38 38 38 38 38 37 37 39 40 42 38
7 9 14 13 12 10 11 10 18 17 8 15 19 18 22 22 22 25 26 22 18 13 12 15 16 16 17 20 23 27 30 30 31 34 38 37 38 38 38 38 38 37 36 37 37 37 36 34 35
12 15 16 7 7 12 5 9 10 11 9 11 20 20 19 21 24 26 25 23 20 16 17 18 20 21 23 26 30 34 33 37 36 38 37 37 37 38 40 40 39 38 36 37 36 26 25 30 27
12 13 12 11 6 11 21 21 15 14 10 12 20 22 22 22 25 26 26 26 24 19 19 21 24 25 27 31 33 36 37 38 40 39 36 36 38 39 40 40 40 39 37 30 24 33 29 28 31
12 5 7 11 6 11 14 9 10 5 8 13 21 23 23 22 24 26 27 28 25 22 22 26 28 30 31 33 38 41 41 39 36 36 36 37 39 41 41 39 37 39 37 31 28 24 28 23 25
10 15 12 7 6 5 4 4 3 5 7 14 19 22 23 24 25 26 29 28 27 27 26 27 32 35 35 36 40 43 41 36 35 36 36 38 40 41 40 38 37 36 34 25 25 25 22 21 27
7 11 13 11 8 6 5 15 12 5 1 9 15 21 23 23 24 25 30 30 30 30 30 33 36 38 37 39 43 41 37 35 35 36 38 40 40 41 40 40 40 37 30 26 25 19 19 22 23
Wind_Direction
225 222 219 216 223 246 256 250 244 259 235 232 228 192 177 200 203 218 223 209 198 181 173 171 162 161 160 156 154 158 167 148 115 35 9 25 70 62 65 72 72 69 63 56 48 40 31 21 13
219 217 211 202 238 248 244 235 222 204 176 149 126 115 115 151 210 219 211 184 194 180 170 167 181 169 159 163 164 170 172 161 116 7 13 98 78 78 83 79 74 72 67 58 48 40 29 19 10
219 211 202 231 237 252 285 192 164 149 153 123 171 133 124 74 153 172 185 178 180 177 168 169 181 170 162 167 172 181 165 200 270 161 128 103 97 98 92 80 74 68 60 52 45 37 30 23 12
209 202 212 223 239 239 254 137 167 194 153 180 185 263 271 281 360 191 189 192 188 185 176 168 179 164 159 166 178 183 193 222 217 148 136 119 117 109 89 76 67 60 47 35 29 23 17 13 8
203 201 230 234 239 249 222 238 191 207 184 164 162 65 52 26 272 234 225 217 209 203 176 155 169 158 182 180 175 188 216 222 165 159 146 136 126 112 92 77 70 56 34 21 14 10 8 5 0
211 209 233 236 232 233 230 214 214 156 127 89 79 142 178 150 129 162 192 206 203 188 145 159 178 152 182 171 185 206 224 182 173 163 152 146 134 120 98 80 58 35 6 359 2 357 356 352 352
208 223 235 250 241 213 213 207 216 265 11 139 155 168 191 217 195 191 215 239 197 169 159 171 186 172 166 178 202 210 188 184 176 165 158 151 149 141 119 82 6 337 332 338 342 344 345 344 343
212 241 241 248 234 204 193 193 205 200 172 119 223 127 245 224 205 182 187 169 140 147 126 158 174 161 173 202 209 192 189 184 174 161 168 176 171 167 192 267 291 309 321 329 331 333 336 338 334
209 228 236 230 205 200 159 179 168 170 211 263 203 185 276 206 193 186 180 166 157 151 147 162 169 182 193 208 193 191 188 176 176 179 186 190 195 206 237 269 285 302 312 316 320 321 325 334 333
202 216 239 203 162 172 143 216 224 216 210 188 215 190 258 183 185 183 174 169 164 163 168 181 193 201 203 195 188 190 189 185 186 195 201 215 229 250 266 272 284 291 302 307 306 311 316 321 328
210 228 243 194 140 75 205 214 215 212 195 165 184 176 157 173 161 165 166 161 170 172 183 191 191 182 180 183 190 188 182 185 198 220 249 268 272 280 276 275 276 293 301 300 307 312 312 316 318
215 231 220 243 165 158 148 146 213 11 77 119 165 155 145 151 155 154 155 166 173 172 174 171 169 174 179 184 182 180 182 195 214 239 273 277 282 284 289 290 273 284 295 294 302 307 308 314 314
218 216 216 202 179 184 180 155 116 94 115 123 142 143 145 153 152 160 161 170 169 169 164 169 174 181 183 191 194 197 206 219 247 282 281 273 289 293 289 303 301 269 276 293 302 306 307 308 308
225 225 227 155 164 174 165 141 115 111 123 132 141 144 153 154 156 160 170 171 178 176 171 175 185 191 205 222 233 241 245 245 273 271 289 291 298 290 286 291 284 259 279 294 302 302 304 305 305
232 193 177 154 142 157 160 157 134 152 136 135 144 153 157 161 164 172 179 181 184 177 179 193 202 218 238 257 256 249 240 282 270 273 265 293 314 299 288 266 261 302 308 307 307 304 303 304 305
170 156 160 172 180 174 194 146 157 157 147 137 145 152 155 164 168 176 188 181 180 182 200 214 226 251 267 276 264 302 282 262 261 278 271 288 303 310 307 312 322 321 314 306 301 298 298 296 296
168 188 154 170 179 180 212 151 162 163 159 154 161 162 164 165 168 183 186 190 198 207 221 232 246 262 273 293 302 304 286 279 277 278 289 293 299 308 315 315 312 308 303 299 299 297 296 296 298
171 188 189 172 177 187 175 148 163 172 174 179 179 181 182 185 188 195 199 209 221 231 237 244 257 268 290 285 281 285 280 279 285 289 285 298 308 312 312 307 304 298 295 295 296 298 300 302 305
203 183 185 153 174 196 177 178 184 180 188 193 195 198 194 193 204 206 207 216 229 236 240 243 255 264 264 270 265 269 276 278 285 301 311 310 311 306 302 298 300 300 301 301 302 304 304 304 303
198 193 144 150 174 194 186 180 190 191 198 202 203 206 208 206 226 226 231 235 238 240 241 248 245 250 250 246 244 256 275 288 300 313 316 313 312 309 306 305 304 302 303 303 303 303 303 304 303
225 219 172 176 188 213 196 190 193 195 205 203 204 208 209 219 231 234 235 239 242 241 234 227 240 246 251 256 259 280 297 306 309 315 314 316 313 308 307 306 305 305 306 305 304 303 302 304 301
193 166 201 227 208 213 212 235 188 202 210 221 219 209 212 225 237 238 233 229 226 213 200 234 231 253 256 271 288 290 277 269 299 299 308 314 312 310 307 306 307 308 307 305 304 303 302 301 300
136 215 203 223 240 228 217 249 203 221 206 214 228 227 226 233 233 223 200 208 199 199 212 222 242 269 281 280 278 285 281 283 292 300 301 307 307 307 309 310 312 311 310 309 306 304 302 298 295
254 170 210 241 254 263 260 237 160 206 217 204 224 226 222 216 207 199 203 202 208 223 237 233 256 266 269 276 281 277 277 285 307 301 306 307 309 311 314 315 315 314 312 309 306 304 302 300 298
199 222 223 224 227 237 261 275 267 268 227 224 211 216 217 224 220 215 218 211 227 241 245 247 256 253 272 283 284 275 276 277 309 310 310 311 313 314 315 317 319 318 315 311 309 305 302 298 287
232 245 246 280 274 272 196 251 270 244 255 231 214 204 219 231 226 222 217 225 232 245 239 251 252 257 270 278 285 286 278 282 315 318 316 315 315 317 320 321 321 319 319 317 316 310 299 287 293
223 247 265 281 292 281 280 277 255 261 233 213 206 203 212 223 226 221 224 231 239 250 254 256 254 262 272 278 283 284 288 286 310 313 315 316 317 320 322 324 323 320 322 323 304 296 302 289 290
223 225 234 234 258 257 274 253 284 224 239 210 210 208 207 208 217 226 230 236 250 259 262 257 259 265 271 279 284 287 292 312 313 315 313 316 319 322 322 322 322 323 323 317 304 298 288 280 284
224 230 235 255 245 281 296 293 102 298 249 226 216 215 214 212 214 225 234 252 256 261 268 267 265 270 273 279 284 290 306 311 315 313 314 317 319 320 322 322 324 323 319 313 300 296 295 278 281
234 235 225 225 222 231 272 277 287 249 257 223 216 218 220 219 219 222 248 259 260 265 272 273 273 271 270 280 286 300 311 312 311 310 314 317 320 322 323 325 324 324 321 312 310 299 277 285 283